Location: Long Barn
(38.0930°N, 120.1344°W)
Time: 23:55:44
(UTC+00:00)

USA 229 - Pass Details

Date: 05 August 2024
Orbit: 890 x 1322 km, 63.4° (Epoch: 31 August)

Event Time Altitude Azimuth Distance (km) Brightness Sun altitude
Rises 12:02:47 0° 326° (NW) 4,046 6.7 -12.1°
Reaches altitude 10° 12:05:25 10° 325° (NW) 3,136 6.1 -11.7°
Maximum altitude 12:13:05 82° 240° (WSW) 1,286 4.0 -10.4°
Drops below altitude 10° 12:21:15 10° 154° (SSE) 3,330 6.3 -9.0°
Sets 12:24:08 0° 153° (SSE) 4,308 6.8 -8.5°
